Theta_e
291 291 291 294 296 298 299 302 310 308 303 302 301 301 301 303 307 307 306 311 311 310 308 310 318 319 319 317 316 315 314 314 311 309 307 306 303 299 298 298 296 295 294 293
290 290 292 295 299 297 298 302 303 301 301 298 298 297 298 302 304 306 306 311 311 310 311 310 318 319 318 318 317 315 315 314 312 310 307 304 301 299 296 295 294 293 293 293
290 290 293 297 296 296 294 293 296 296 296 296 295 296 297 299 302 304 306 310 311 309 309 308 316 318 318 318 317 315 315 314 311 310 306 302 298 297 296 294 293 292 292 292
291 292 299 298 293 295 295 292 292 292 293 293 294 294 297 298 301 306 309 309 308 306 305 306 317 319 318 317 316 315 314 313 311 308 304 299 297 296 294 293 292 291 291 290
291 293 294 292 292 292 293 295 290 290 291 291 292 295 299 296 300 303 302 301 301 301 301 303 314 319 318 317 315 314 313 311 308 305 300 296 295 294 292 291 290 289 290 291
292 294 297 290 290 291 293 297 289 289 290 291 292 295 295 295 299 299 298 298 298 298 300 302 307 314 315 314 314 313 311 308 305 301 297 295 293 292 290 290 290 290 291 291
292 293 294 289 290 291 291 290 288 289 290 291 292 293 294 297 296 295 295 294 294 294 295 295 301 308 307 308 308 306 304 302 299 296 295 292 290 291 290 290 290 290 289 289
292 290 291 287 289 289 288 288 288 289 290 291 292 294 294 295 293 292 292 291 292 292 292 292 296 297 294 294 297 299 298 295 294 293 290 290 290 289 289 289 289 288 288 287
287 290 286 286 287 287 286 287 288 290 290 290 291 292 292 292 291 290 289 289 289 290 290 290 291 292 290 291 291 291 290 289 289 289 288 288 288 288 288 288 288 287 286 286
285 287 284 284 285 286 286 287 288 289 290 290 290 290 290 289 288 288 288 288 288 288 288 288 289 289 289 290 290 289 288 288 288 288 287 287 287 287 287 287 286 286 286 286
283 285 283 285 285 286 286 288 289 289 289 289 290 289 288 288 287 287 287 287 287 287 287 287 287 287 287 288 288 288 287 287 287 287 287 286 286 286 286 286 286 286 286 286
282 282 283 284 285 287 287 288 288 287 288 288 288 288 287 287 287 287 286 286 286 286 286 286 286 287 287 287 287 287 287 287 286 286 286 286 286 285 286 286 286 286 285 285
281 282 283 285 287 287 288 287 287 287 287 287 286 286 287 287 286 287 285 286 286 286 285 285 286 286 286 286 286 286 286 286 287 286 286 286 286 286 285 285 285 285 285 285
280 284 284 286 287 287 286 286 286 286 286 286 286 285 285 285 285 285 285 285 285 285 285 285 286 285 286 286 286 286 286 286 286 286 286 286 286 286 286 286 285 285 284 284
283 284 285 286 286 285 285 285 285 285 285 284 284 284 284 284 284 284 284 284 284 284 284 284 284 284 285 285 285 285 285 285 285 285 285 285 285 285 284 283 282 282 282 282
282 283 283 284 284 284 284 284 284 284 284 284 283 283 283 283 283 283 283 284 284 284 284 284 283 284 284 285 285 285 284 284 283 283 283 283 283 283 282 281 281 281 281 281
281 281 282 283 283 283 283 283 283 283 283 283 283 283 283 283 283 283 283 283 283 283 283 283 283 283 284 283 283 282 282 282 282 281 281 281 281 280 280 280 279 279 279 279
280 280 281 282 282 282 282 283 283 283 283 283 283 282 282 282 282 282 282 282 282 282 282 282 282 283 282 282 282 281 281 280 280 280 280 279 279 279 279 279 279 280 280 279
279 279 279 280 281 281 281 281 281 282 282 282 282 282 282 282 282 282 282 281 281 281 282 282 282 282 281 281 281 281 280 280 280 279 280 279 279 279 279 279 279 279 278 277
278 278 278 279 279 279 280 280 281 281 281 281 282 282 281 281 281 281 281 281 281 281 281 281 281 281 281 281 280 280 280 280 279 279 278 278 278 278 278 278 278 277 277 276
278 278 278 278 278 278 278 279 279 279 280 280 281 281 281 281 281 281 281 281 281 281 281 281 281 280 280 280 280 280 279 279 279 278 278 278 278 278 277 277 277 276 276 276
277 277 277 277 277 277 277 277 278 278 279 279 280 280 280 280 281 281 281 281 281 281 281 281 281 280 280 280 280 280 279 279 278 278 278 278 277 277 276 276 276 276 276 276
275 276 276 276 276 277 277 277 277 277 277 278 279 279 279 280 280 280 281 281 281 281 281 281 281 279 280 279 279 279 278 278 278 278 277 277 276 276 275 274 274 274 274 274
274 274 275 275 276 276 276 276 277 277 277 278 278 279 279 279 280 280 282 282 281 280 280 280 279 278 279 278 278 277 277 277 277 277 276 276 276 275 274 274 273 273 274 274
274 274 274 274 275 275 276 276 277 277 277 277 277 278 278 278 278 279 281 282 280 280 280 280 278 278 278 277 277 277 276 276 276 276 276 276 275 275 275 275 275 274 273 276
273 273 273 273 274 275 275 276 275 276 276 276 276 277 277 278 278 278 279 280 280 279 278 278 278 277 277 277 276 276 276 276 275 275 275 275 275 275 275 275 275 275 275 275
274 274 273 273 273 274 275 275 275 276 276 276 276 276 277 277 277 278 278 278 279 279 278 278 277 277 277 276 276 276 275 275 275 275 274 274 274 274 275 275 275 275 275 275
Wind_Speed
16 16 18 19 21 17 6 4 4 8 13 16 17 16 13 13 13 10 8 4 5 6 4 8 20 29 35 37 39 40 38 38 39 40 40 39 36 37 41 45 44 45 43 41
16 13 11 16 20 26 18 15 12 11 10 18 15 15 20 16 16 14 10 5 6 7 7 4 21 28 33 35 35 40 40 38 36 39 38 38 40 41 38 37 40 44 43 43
6 15 17 4 19 16 16 25 16 16 11 17 19 18 15 15 14 13 13 7 8 7 6 7 20 33 32 34 35 38 37 37 37 37 37 37 39 42 42 40 40 39 43 43
5 12 5 5 17 11 10 16 19 15 18 19 18 16 3 14 17 15 14 10 10 9 11 19 24 33 34 34 33 35 34 34 34 35 36 37 41 38 38 40 40 40 42 40
3 4 5 12 22 17 9 7 21 19 20 20 22 10 1 20 19 15 13 11 8 15 16 21 8 23 26 28 33 32 28 30 33 35 35 34 33 36 35 37 35 35 35 36
4 4 7 12 22 21 8 3 25 21 19 21 19 10 5 19 18 14 13 15 15 18 17 20 17 13 22 24 26 28 32 32 33 36 37 38 42 42 34 37 37 38 37 39
5 2 4 16 18 10 8 8 22 19 16 16 11 8 15 13 11 12 13 16 17 15 13 15 12 15 14 13 18 23 30 33 32 34 35 35 38 47 46 40 40 37 35 36
5 4 4 20 6 7 6 10 15 15 12 15 14 13 11 10 10 11 12 15 15 11 13 15 10 14 19 17 23 33 37 37 38 39 39 42 47 40 46 48 46 40 37 31
2 3 4 8 5 6 10 13 14 13 14 13 14 10 10 9 9 9 10 11 11 9 11 15 12 15 20 18 27 33 35 34 35 36 37 39 44 43 40 41 44 40 37 31
6 3 16 13 12 15 15 14 14 12 14 11 11 9 8 7 7 7 11 11 10 11 13 14 16 18 24 28 30 33 34 34 36 38 35 35 35 37 41 39 35 36 33 31
5 4 17 3 20 18 18 13 13 12 12 9 9 7 7 6 7 7 10 12 13 13 14 16 20 21 22 26 35 34 34 33 33 34 35 33 30 31 33 31 39 35 33 32
3 12 10 15 18 20 13 13 12 12 10 9 8 7 6 6 8 10 11 14 16 17 19 20 23 23 23 25 31 35 33 31 32 34 34 34 36 35 34 37 37 37 37 34
6 12 16 17 13 10 10 10 9 8 7 6 10 10 11 8 15 19 18 17 18 19 23 25 26 26 26 28 28 29 31 30 32 34 33 34 34 34 35 33 31 31 30 29
12 9 6 5 6 8 8 10 11 10 13 12 12 14 16 16 19 19 19 21 24 25 25 26 27 26 28 32 33 32 32 32 31 32 34 34 33 32 33 33 31 30 26 26
9 7 6 7 7 8 11 8 8 9 10 13 18 18 19 17 16 19 23 26 27 28 28 29 28 26 28 32 33 32 32 31 32 31 30 31 30 30 31 29 29 29 28 24
7 7 8 8 8 10 11 11 12 11 10 13 16 19 21 23 24 26 28 29 26 23 27 29 28 28 32 33 33 34 33 31 31 30 30 30 29 28 28 26 26 25 23 22
4 8 8 9 10 10 10 8 10 10 16 18 18 20 23 26 27 28 29 30 31 30 30 30 29 32 33 34 33 31 30 31 29 31 27 25 24 23 23 23 23 22 22 21
10 11 11 10 9 10 12 16 19 19 17 20 24 25 26 25 20 23 25 28 30 31 30 28 28 29 29 30 31 29 26 25 25 25 24 24 23 23 23 24 23 22 21 20
16 14 18 19 17 17 17 19 21 22 23 23 25 24 24 23 23 23 24 26 24 23 22 24 22 25 24 21 25 25 27 26 25 25 25 24 24 24 24 25 25 25 23 21
17 19 19 20 23 21 19 20 21 23 22 22 21 22 21 21 21 23 25 25 22 21 23 22 24 24 21 19 22 25 26 26 26 25 25 25 25 25 23 24 23 22 21 20
16 17 19 19 19 21 21 20 20 20 20 21 21 20 20 21 21 18 19 19 19 18 19 20 20 19 18 19 22 24 24 25 26 25 26 26 24 25 23 22 20 19 18 16
15 17 18 17 17 20 21 22 21 21 21 21 22 20 18 18 19 21 22 18 17 18 20 19 17 15 16 18 20 21 21 21 23 23 24 24 24 23 21 19 17 15 13 11
16 17 17 16 15 18 22 22 21 21 21 21 20 18 18 18 17 13 13 16 17 17 19 18 15 14 15 17 18 18 18 18 18 18 19 19 20 19 17 15 12 10 9 9
15 16 15 14 18 21 18 18 19 20 20 19 19 18 18 18 19 18 16 16 15 15 16 15 14 14 15 16 15 15 15 15 15 16 16 14 13 13 13 11 10 9 8 6
12 14 16 17 17 15 17 16 18 18 18 18 17 16 15 15 15 12 13 15 15 17 17 14 13 13 13 12 11 11 12 11 12 10 10 10 8 8 8 7 7 7 5 6
11 14 15 18 17 17 15 17 15 15 16 15 15 13 13 12 11 10 10 11 11 12 13 13 13 11 10 9 9 9 11 10 8 9 9 9 8 7 7 6 5 5 5 5
18 18 18 16 17 16 14 14 17 17 13 12 11 11 11 11 10 11 10 10 10 10 9 9 8 7 6 6 6 7 7 5 4 5 6 5 5 5 5 4 2 3 5 4
Wind_Direction
294 294 294 294 286 286 284 286 26 69 66 16 14 18 14 9 4 5 22 14 35 357 20 170 178 179 175 176 177 176 177 178 179 179 179 175 173 173 176 179 179 179 179 178
307 301 330 314 10 36 36 20 51 50 55 3 350 5 14 10 4 1 355 337 19 18 351 8 181 179 179 175 175 176 179 183 178 179 177 173 169 171 170 168 168 173 175 176
287 323 309 47 12 34 46 35 23 34 345 347 354 357 355 356 359 343 326 338 33 10 331 298 193 176 181 178 172 176 181 180 178 177 175 169 168 166 165 165 165 165 170 173
293 317 54 55 18 358 52 46 33 18 2 350 335 317 292 16 354 356 8 23 21 9 348 334 180 177 179 173 173 174 177 176 173 171 170 165 162 162 161 162 161 161 160 160
323 315 270 15 349 338 346 48 22 3 353 346 337 328 63 4 355 2 4 6 8 9 356 353 91 159 169 169 166 166 168 164 164 163 158 156 153 152 154 149 147 143 143 142
335 320 28 356 333 341 143 108 9 357 345 341 344 11 326 334 332 359 3 8 6 7 1 16 26 126 149 156 161 165 160 158 158 156 156 153 146 142 141 137 134 136 135 139
300 302 88 354 341 329 45 316 332 340 333 329 331 301 295 315 355 360 6 7 5 8 8 13 35 115 83 114 127 136 139 140 143 147 147 145 141 141 139 135 127 124 126 129
330 5 354 0 7 45 305 305 320 329 322 312 316 322 341 349 359 4 3 9 9 12 15 27 51 102 81 80 120 131 134 133 137 141 140 140 136 135 135 137 133 128 125 125
38 294 52 0 58 3 339 330 325 324 325 334 320 336 345 353 4 6 8 12 17 31 36 43 73 103 93 100 116 119 118 120 124 127 132 137 135 134 133 137 135 134 130 129
321 65 342 340 354 347 338 325 319 322 320 323 324 343 345 360 4 10 15 21 26 47 54 49 69 89 106 115 114 113 114 117 122 123 123 127 130 134 134 135 136 134 133 133
278 342 337 354 335 326 326 322 328 337 330 334 330 352 7 13 19 25 34 36 46 56 65 66 76 83 99 112 117 111 112 116 118 120 121 120 121 129 130 133 137 136 134 139
280 312 287 285 309 314 322 329 347 345 347 357 5 18 23 35 36 45 51 55 62 66 72 72 78 84 95 106 113 116 114 116 118 118 118 116 114 107 121 129 135 139 143 143
271 294 285 282 295 320 331 354 6 1 8 14 27 31 38 54 61 64 57 61 66 70 74 76 79 83 93 101 105 108 112 115 116 116 117 117 116 118 120 121 122 126 125 124
299 294 299 325 338 350 6 15 16 19 33 32 39 48 59 62 61 58 56 60 67 69 71 77 79 82 96 103 103 102 104 107 109 111 112 113 117 121 123 123 121 116 119 125
322 325 326 333 4 17 23 24 34 39 44 47 50 55 57 59 56 58 63 66 67 68 68 69 69 72 94 100 101 102 104 102 103 106 111 114 115 115 115 115 115 118 122 120
324 3 9 24 35 37 41 40 46 42 45 51 55 58 63 65 64 63 64 65 64 62 66 69 67 75 85 91 92 91 95 99 101 102 106 105 107 112 117 119 119 121 122 120
11 22 12 31 38 44 48 49 54 58 59 55 53 59 64 66 63 60 60 64 66 65 67 70 71 87 94 94 92 91 93 97 101 101 103 109 114 117 119 118 118 121 129 140
39 42 43 47 50 51 49 51 53 52 52 59 61 60 59 59 60 60 62 65 65 64 67 75 86 91 95 100 101 98 98 101 104 106 110 112 114 115 117 119 123 127 127 130
36 45 48 46 46 55 53 50 49 51 52 59 62 60 60 60 61 61 64 63 60 60 60 75 80 88 89 91 105 107 108 106 106 108 112 118 118 122 125 129 128 130 133 133
40 43 49 49 46 47 49 47 54 54 51 56 63 63 60 57 61 65 68 66 63 70 80 84 91 92 95 100 116 118 118 118 118 120 125 126 130 131 132 138 139 137 135 132
38 42 48 47 47 48 47 48 54 50 51 55 60 61 63 62 62 62 63 67 67 77 82 86 90 94 98 110 121 124 125 125 125 127 130 130 134 139 139 139 137 136 135 136
37 43 46 46 49 51 46 50 55 57 57 55 58 61 61 56 63 67 71 74 83 87 84 81 80 89 101 115 118 120 123 126 130 134 136 138 138 135 135 138 136 135 137 136
37 45 45 44 47 58 55 52 57 62 59 61 61 60 59 64 66 63 67 74 85 84 83 81 84 91 105 108 113 118 121 124 126 131 135 137 138 138 139 136 133 138 129 129
38 41 43 45 53 53 48 46 58 65 69 69 67 66 69 68 65 65 73 93 80 83 80 81 82 91 99 102 107 112 118 123 129 133 137 142 147 141 138 139 138 141 136 145
45 49 48 45 48 42 47 57 58 60 64 65 62 61 63 64 65 60 76 96 90 90 86 81 89 94 95 98 103 111 118 126 133 138 144 149 147 140 139 135 143 145 147 141
61 55 51 52 50 48 47 56 46 47 54 57 56 54 60 62 64 68 82 90 107 88 84 80 80 81 84 88 98 111 122 127 145 138 143 150 156 163 172 169 164 177 167 163
55 51 45 40 44 48 45 42 45 36 46 51 57 50 56 63 64 67 77 94 100 102 96 93 85 80 80 91 107 126 133 142 153 156 163 162 173 171 179 179 179 185 187 194